Regional Weather Roundup
Issued by NWS

Home | Current Version | Previous Version | Graphics & Text | Print | Product List | Glossary On
Versions: 1 2 3 4 5 6 7 8 9 10 11 12 13 14 15 16 17 18 19 20 21 22 23 24 25 26 27 28 29 30 31 32 33 34 35 36 37 38 39 40 41 42 43 44 45 46 47 48 49 50
000
ASUS43 KIND 290609
RWRIN

WEATHER ROUNDUP FOR INDIANA
NATIONAL WEATHER SERVICE INDIANAPOLIS IN
200 AM EDT SAT APR 29 2017

NOTE: "FAIR" INDICATES FEW OR NO CLOUDS BELOW 12,000 FEET WITH NO
SIGNIFICANT WEATHER AND/OR OBSTRUCTIONS TO VISIBILITY.

* - STATION DOES NOT REPORT WEATHER SUCH AS PRECIPITATION OR FOG.

+ - STATION NOT QUALITY CONTROLLED BY THE NATIONAL WEATHER SERVICE.
    USE DATA WITH CAUTION...ESPECIALLY DEWPOINT AND RELATIVE
    HUMIDITY OBSERVATIONS.

INZ001>003-010>013-019-020-290700-
NORTHWEST INDIANA

CITY           SKY/WX    TMP DP  RH WIND       PRES   REMARKS
GARY /AIRPORT/ CLOUDY    47  39  74 N17G24    30.00F
KNOX *+        CLOUDY    52  36  54 NE5       29.98R
LA PORTE +     CLOUDY    53  49  87 N5        29.96F
6HR MIN TEMP:  53; 6HR MAX TEMP:  58;

MICHIGAN CITY+ CLOUDY    45  41  87 N10G17    29.97F
MONTICELLO +   CLOUDY    53  52  95 N5        29.95R FOG
6HR MIN TEMP:  53; 6HR MAX TEMP:  55; 6HR PCP:  0.04;

RENSSELAER +   CLOUDY    54  50  87 N7        29.96R
VALPARAISO     CLOUDY    51  47  86 N8        29.99R
6HR MIN TEMP:  51; 6HR MAX TEMP:  60;


$$

LMZ046-743>745-290700-
SOUTHERN LAKE MICHIGAN

STATION/POSITION TIME  TEMP    WIND        PRES    WAVE
                       AIR SEA DIR/SP/G            HT
                 (UTC) (F)     (DEG/KT/KT) (MB)    (FT)
BURNS HARBOR     0540   46      20/ 17/ 19 1015.2F
MICHIGAN CITY    0540   45      20/ 16/ 17   N/A
5NW MICH CITY    0600   44 47                N/A     3

$$

INZ004-005-014>016-021>024-290700-
NORTH CENTRAL INDIANA

CITY           SKY/WX    TMP DP  RH WIND       PRES   REMARKS
GOSHEN         CLOUDY    54  49  83 SE3       29.97R
6HR MIN TEMP:  52; 6HR MAX TEMP:  58; 6HR PCP: TRACE;

LOGANSPORT +   CLOUDY    52  52 100 N5        29.95R FOG
PERU/GRISSOM   CLOUDY    54  54 100 NE3       29.91S
6HR MIN TEMP:  53; 6HR MAX TEMP:  54; 6HR PCP:  0.22;

ROCHESTER +    CLOUDY    55  54  94 N7        29.95S
SOUTH BEND     CLOUDY    53  48  83 VRB3      29.96F
6HR MIN TEMP:  53; 6HR MAX TEMP:  58;

WARSAW +       CLOUDY    52  50  93 N5        29.97R

$$

INZ006>009-017-018-025>027-290700-
NORTHEAST INDIANA

CITY           SKY/WX    TMP DP  RH WIND       PRES   REMARKS
ANGOLA *+      CLOUDY    54  41  62 CALM      29.97R
AUBURN +       CLOUDY    54  50  87 NE6       29.96S FOG
FORT WAYNE     CLOUDY    54  52  93 N5        29.95R FOG
6HR MIN TEMP:  53; 6HR MAX TEMP:  54; 6HR PCP:  0.10;

HUNTINGTON +   CLOUDY    53  52  97 NE3       29.92F FOG
6HR MIN TEMP:  51; 6HR MAX TEMP:  53; 6HR PCP:  0.10;

KENDALLVILLE + CLOUDY    53  51  94 E5        29.97R

$$

INZ028-029-035-036-043>045-051>053-290700-
WEST CENTRAL INDIANA

CITY           SKY/WX    TMP DP  RH WIND       PRES   REMARKS
CRAWFORDSVL +  CLOUDY    53  53 100 N12       29.88F FOG
6HR MIN TEMP:  53; 6HR MAX TEMP:  54; 6HR PCP:  0.03;

GREENCASTLE +  CLOUDY    54  54 100 CALM      29.89F FOG
LAFAYETTE      CLOUDY    54  54 100 NE7       29.91S FOG
6HR MIN TEMP:  54; 6HR MAX TEMP:  55; 6HR PCP:  0.16;

TERRE HAUTE    CLOUDY    57  55  93 N3        29.88F FOG
6HR MIN TEMP:  57; 6HR MAX TEMP:  58; 6HR PCP:  0.20;


$$

INZ030>032-037>040-046>048-054>057-064-065-290700-
CENTRAL INDIANA

CITY           SKY/WX    TMP DP  RH WIND       PRES   REMARKS
CP ATTERBURY + CLOUDY    59  57  94 NW5       29.91R THUNDER
FISHERS *+     CLOUDY    54  54 100 CALM      29.91R
FRANKFORT +    CLOUDY    57  56  94 NE10      29.93S FOG
6HR MIN TEMP:  57; 6HR MAX TEMP:  58; 6HR PCP:  0.12;

GREENWOOD *+   CLOUDY    59  57  93 SE6       29.90F
INDIANAPOLIS   CLOUDY    57  56  96 N8        29.90R FOG
6HR MIN TEMP:  56; 6HR MAX TEMP:  58; 6HR PCP:  0.46;

-EAGLE CREEK   CLOUDY    57  55  93 N3        29.89F FOG
6HR MIN TEMP:  56; 6HR MAX TEMP:  58; 6HR PCP:  0.11;

KOKOMO +       CLOUDY    55  53  93 E7        29.94F
6HR MIN TEMP:  54; 6HR MAX TEMP:  55; 6HR PCP:  0.14;

MARION +       CLOUDY    54  54 100 NE6       29.94S FOG
MT COMFORT *+  CLOUDY    57  55  94 SE3       29.91R
SHELBYVILLE    CLOUDY    62  57  83 CALM      29.90S
6HR MIN TEMP:  59; 6HR MAX TEMP:  62; 6HR PCP:  0.20;

ZIONSVILLE +   CLOUDY    54  54  99 N8        29.91F
6HR MIN TEMP:  54; 6HR MAX TEMP:  55; 6HR PCP:  0.28;


$$

INZ033-034-041-042-049-050-058-059-290700-
EAST CENTRAL INDIANA

CITY           SKY/WX    TMP DP  RH WIND       PRES   REMARKS
MUNCIE         TSTM      58  56  93 N3        29.93R FOG
6HR MIN TEMP:  57; 6HR MAX TEMP:  59; 6HR PCP:  0.52;

RICHMOND +     CLOUDY    55  55 100 SE12      29.93S FOG

$$

INZ060-061-067>069-081>083-085>088-290700-
SOUTHWEST INDIANA

CITY           SKY/WX    TMP DP  RH WIND       PRES   REMARKS
EVANSVILLE     TSTM      68  66  93 S6        29.89R FOG
6HR MIN TEMP:  67; 6HR MAX TEMP:  74; 6HR PCP:  2.74;

WASHINGTON +   CLOUDY    60  58  94 SE8       29.88S THUNDER FOG
6HR MIN TEMP:  59; 6HR MAX TEMP:  69; 6HR PCP:  0.02;


$$

INZ062-063-066-070>080-084-089>092-290700-
SOUTH CENTRAL AND SOUTHEAST INDIANA

CITY           SKY/WX    TMP DP  RH WIND       PRES   REMARKS
BEDFORD +      CLOUDY    63  61  94 CALM      29.86F THUNDER
BLOOMINGTON    LGT RAIN  60  58  92 CALM      29.89S FOG
6HR MIN TEMP:  59; 6HR MAX TEMP:  61; 6HR PCP:  0.15;

MADISON *+     CLOUDY    66  64  94 S9        29.97R
NORTH VERNON + LGT RAIN  61  61 100 SE8       29.92R
SEYMOUR +      CLOUDY    63  63 100 SE6       29.91R

$$





USA.gov is the U.S. government's official web portal to all federal, state and local government web resources and services.